User: anonymous   Login
Location: Campo Alegre
(10.4289°N, 66.6519°W)
Time: 06:15:35
(UTC+00:00)
Language:

Centaur AC-119 - Orbit

View from above orbital plane
View from above orbital plane
View from above satellite
View from above satellite

Ground track
Ground track

The orbit data is extracted from the following two-line orbital elements,

1 23697U 95057B   24205.29724464  .00359553 -35476-6  19761-2 0  9992
2 23697  26.8010  65.4343 3675350 144.5014 246.7050  8.22071707464810
Epoch (UTC): 23 July 2024 07:08:01
Eccentricity: 0.3675350
inclination: 26.8010°
perigee height: 181 km
apogee height: 7803 km
right ascension of ascending node: 65.4343°
argument of perigee: 144.5014°
revolutions per day: 8.22071707
mean anomaly at epoch: 246.7050°
orbit number at epoch: 46481

The dashed part of the orbit path shows where the satellite is in the earth's shadow,  

DLR